Weather History for Zapata, TX

Change the Weather History Date:

Monday, May 7, 2012

  Actual Average (KLRD) Record (KLRD)
Temperature  
Mean Temperature 86 °F 81 °F  
Max Temperature 100 °F 92 °F 115 °F (1927)
Min Temperature 71 °F 70 °F 37 °F (1917)
Degree Days  
Heating Degree Days 0 0  
Month to date heating degree days 0  
Since 1 July heating degree days 926  
Cooling Degree Days 20 16  
Month to date cooling degree days 105  
Year to date cooling degree days 705  
Growing Degree Days 36 (Base 50)    
Moisture  
Dew Point 69 °F    
Average Humidity 64    
Maximum Humidity 100    
Minimum Humidity 31    
Precipitation  
Precipitation 0.00 in 0.09 in 1.14 in (1976)
Month to date precipitation 0.54  
Year to date precipitation 4.92  
Sea Level Pressure  
Sea Level Pressure 29.77 in    
Wind  
Wind Speed 9 mph (SE)    
Max Wind Speed 20 mph    
Max Gust Speed 29 mph    
Visibility 9 miles    
Events Thunderstorm    
T = Trace of Precipitation, MM = Missing Value Source: NWS Daily Summary

Daily Weather History Graph

Daily Weather History Graph

Search for Another Location

Airport:

Trip Planner

Search our weather history database for the weather conditions in past years. The results will help you decide how hot, cold, wet, or windy it might be!

Date:

Astronomy

May. 07, 2012 Rise Set
Actual Time 6:53 AM CDT 8:13 PM CDT
Civil Twilight 6:28 AM CDT 8:38 PM CDT
Nautical Twilight 5:59 AM CDT 9:08 PM CDT
Astronomical Twilight 5:28 AM CDT 9:38 PM CDT
Moon 10:18 PM CDT (5/7) 8:08 AM CDT (5/7)
Length of Visible Light 14h 09m
Length of Day
13h 19m
Waning Gibbous, 96% of the Moon is Illuminated
May 7
Waning Gibbous
May 12
Last Quarter
May 20
New
May 28
First Quarter
Jun 4
Full

Hourly Weather History & Observations

Time (CDT) Temp. Heat Index Dew Point Humidity Pressure Visibility Wind Dir Wind Speed Gust Speed Precip Events Conditions
12:15 AM 78.8 °F - 69.8 °F 74% 29.84 in 10.0 mi SSE 9.2 mph 19.6 mph N/A   Clear
12:35 AM 78.8 °F - 69.8 °F 74% 29.84 in 10.0 mi SSE 10.4 mph - N/A   Clear
12:55 AM 78.8 °F - 69.8 °F 74% 29.84 in 10.0 mi SE 8.1 mph 17.3 mph N/A   Clear
1:15 AM 78.8 °F - 69.8 °F 74% 29.83 in 10.0 mi SE 6.9 mph - N/A   Clear
1:35 AM 77.0 °F - 69.8 °F 78% 29.83 in 10.0 mi SE 8.1 mph - N/A   Clear
1:55 AM 77.0 °F - 69.8 °F 78% 29.82 in 10.0 mi SE 6.9 mph - N/A   Clear
2:15 AM 77.0 °F - 69.8 °F 78% 29.81 in 10.0 mi SE 8.1 mph - N/A   Clear
2:35 AM 75.2 °F - 69.8 °F 83% 29.81 in 10.0 mi ESE 8.1 mph - N/A   Clear
2:55 AM 75.2 °F - 69.8 °F 83% 29.80 in 10.0 mi ESE 6.9 mph - N/A   Clear
3:15 AM 73.4 °F - 69.8 °F 88% 29.80 in 10.0 mi ESE 6.9 mph - N/A   Clear
3:35 AM 73.4 °F - 69.8 °F 88% 29.79 in 10.0 mi ESE 6.9 mph - N/A   Clear
3:55 AM 73.4 °F - 69.8 °F 88% 29.79 in 10.0 mi SE 5.8 mph - N/A   Clear
4:15 AM 73.4 °F - 69.8 °F 88% 29.79 in 10.0 mi ESE 4.6 mph - N/A   Clear
4:35 AM 73.4 °F - 71.6 °F 94% 29.79 in 10.0 mi ESE 5.8 mph - N/A   Mostly Cloudy
4:55 AM 73.4 °F - 71.6 °F 94% 29.79 in 10.0 mi SE 6.9 mph - N/A   Overcast
5:15 AM 73.4 °F - 71.6 °F 94% 29.79 in 10.0 mi ESE 6.9 mph - N/A   Overcast
5:35 AM 73.4 °F - 71.6 °F 94% 29.78 in 7.0 mi SE 6.9 mph - N/A   Overcast
5:55 AM 73.4 °F - 71.6 °F 94% 29.78 in 7.0 mi North - - N/A   Mostly Cloudy
6:15 AM 73.4 °F - 71.6 °F 94% 29.78 in 7.0 mi North - - N/A   Scattered Clouds
6:35 AM 73.4 °F - 71.6 °F 94% 29.78 in 7.0 mi SE 5.8 mph - N/A   Clear
6:55 AM 71.6 °F - 71.6 °F 100% 29.79 in 7.0 mi ESE 5.8 mph - N/A   Clear
7:15 AM 73.4 °F - 71.6 °F 94% 29.81 in 5.0 mi SE 3.5 mph - N/A   Scattered Clouds
7:35 AM 73.4 °F - 71.6 °F 94% 29.82 in 7.0 mi Calm Calm - N/A   Mostly Cloudy
7:55 AM 73.4 °F - 71.6 °F 94% 29.82 in 7.0 mi ESE 5.8 mph - N/A   Overcast
8:15 AM 73.4 °F - 71.6 °F 94% 29.82 in 7.0 mi ESE 6.9 mph - N/A   Overcast
8:35 AM 75.2 °F - 71.6 °F 89% 29.83 in 7.0 mi SE 8.1 mph - N/A   Overcast
8:55 AM 77.0 °F - 71.6 °F 83% 29.83 in 7.0 mi SE 10.4 mph - N/A   Overcast
9:15 AM 77.0 °F - 71.6 °F 83% 29.83 in 7.0 mi SE 9.2 mph - N/A   Overcast
9:35 AM 78.8 °F - 71.6 °F 78% 29.82 in 10.0 mi ESE 12.7 mph - N/A   Overcast
9:55 AM 80.6 °F 84.6 °F 71.6 °F 74% 29.83 in 10.0 mi ESE 10.4 mph - N/A   Overcast
10:15 AM 82.4 °F 87.2 °F 71.6 °F 70% 29.83 in 10.0 mi ESE 6.9 mph - N/A   Overcast
10:35 AM 82.4 °F 87.2 °F 71.6 °F 70% 29.84 in 7.0 mi East 8.1 mph - N/A   Mostly Cloudy
10:55 AM 86.0 °F 91.8 °F 71.6 °F 62% 29.85 in 10.0 mi ESE 8.1 mph - N/A   Mostly Cloudy
11:15 AM 86.0 °F 91.8 °F 71.6 °F 62% 29.85 in 10.0 mi East 4.6 mph - N/A   Mostly Cloudy
11:35 AM 87.8 °F 92.6 °F 69.8 °F 55% 29.84 in 10.0 mi ESE 8.1 mph - N/A   Scattered Clouds
11:55 AM 89.6 °F 94.7 °F 69.8 °F 52% 29.84 in 10.0 mi East 9.2 mph - N/A   Scattered Clouds
12:15 PM 91.4 °F 96.8 °F 69.8 °F 49% 29.83 in 10.0 mi East 8.1 mph - N/A   Clear
12:35 PM 91.4 °F 96.8 °F 69.8 °F 49% 29.81 in 10.0 mi ESE 9.2 mph 17.3 mph N/A   Clear
12:55 PM 95.0 °F 101.3 °F 69.8 °F 44% 29.80 in 10.0 mi SE 5.8 mph - N/A   Clear
1:15 PM 95.0 °F 99.5 °F 68.0 °F 41% 29.79 in 10.0 mi SE 6.9 mph 16.1 mph N/A   Clear
1:35 PM 95.0 °F 99.5 °F 68.0 °F 41% 29.79 in 10.0 mi ESE 9.2 mph 18.4 mph N/A   Clear
1:55 PM 95.0 °F 99.5 °F 68.0 °F 41% 29.78 in 10.0 mi SE 11.5 mph 19.6 mph N/A   Clear
2:15 PM 96.8 °F 100.7 °F 66.2 °F 37% 29.77 in 10.0 mi SSE 12.7 mph - N/A   Clear
2:35 PM 96.8 °F 100.7 °F 66.2 °F 37% 29.76 in 10.0 mi SSE 11.5 mph 17.3 mph N/A   Clear
2:55 PM 96.8 °F 100.7 °F 66.2 °F 37% 29.74 in 10.0 mi SE 8.1 mph 18.4 mph N/A   Clear
3:15 PM 98.6 °F 102.8 °F 66.2 °F 35% 29.74 in 10.0 mi SE 9.2 mph 18.4 mph N/A   Clear
3:35 PM 98.6 °F 102.8 °F 66.2 °F 35% 29.72 in 10.0 mi SE 11.5 mph 16.1 mph N/A   Clear
3:55 PM 98.6 °F 101.0 °F 64.4 °F 32% 29.71 in 10.0 mi SSE 10.4 mph - N/A   Clear
4:15 PM 100.4 °F 103.6 °F 64.4 °F 31% 29.70 in 10.0 mi SSE 10.4 mph 19.6 mph N/A   Clear
4:35 PM 100.4 °F 103.6 °F 64.4 °F 31% 29.68 in 10.0 mi ESE 11.5 mph 20.7 mph N/A   Clear
4:55 PM 100.4 °F 103.6 °F 64.4 °F 31% 29.68 in 10.0 mi ESE 11.5 mph - N/A   Clear
5:15 PM 100.4 °F 103.6 °F 64.4 °F 31% 29.66 in 10.0 mi ESE 11.5 mph 19.6 mph N/A   Clear
5:35 PM 98.6 °F 101.0 °F 64.4 °F 32% 29.66 in 10.0 mi ESE 17.3 mph 21.9 mph N/A   Clear
5:55 PM 98.6 °F 101.0 °F 64.4 °F 32% 29.66 in 10.0 mi SE 12.7 mph 19.6 mph N/A   Clear
6:15 PM 96.8 °F 98.0 °F 62.6 °F 32% 29.67 in 10.0 mi ESE 11.5 mph 17.3 mph N/A   Clear
6:35 PM 96.8 °F 98.0 °F 62.6 °F 32% 29.67 in 10.0 mi SE 12.7 mph 23.0 mph N/A   Clear
6:55 PM 95.0 °F 97.0 °F 64.4 °F 36% 29.67 in 10.0 mi SE 13.8 mph 20.7 mph N/A   Clear
7:15 PM 95.0 °F 96.0 °F 62.6 °F 34% 29.67 in 10.0 mi SE 15.0 mph 21.9 mph N/A   Clear
7:35 PM 91.4 °F 93.2 °F 64.4 °F 41% 29.70 in 10.0 mi SE 17.3 mph 25.3 mph N/A   Clear
7:55 PM 91.4 °F 94.0 °F 66.2 °F 43% 29.71 in 10.0 mi SE 13.8 mph 24.2 mph N/A   Clear
8:15 PM 89.6 °F 93.4 °F 68.0 °F 49% 29.70 in 10.0 mi SE 15.0 mph 25.3 mph N/A   Clear
8:35 PM 87.8 °F 91.4 °F 68.0 °F 52% 29.72 in 10.0 mi SE 11.5 mph 17.3 mph N/A   Clear
8:55 PM 87.8 °F 92.6 °F 69.8 °F 55% 29.72 in 10.0 mi ESE 17.3 mph 25.3 mph N/A   Clear
9:15 PM 86.0 °F 90.4 °F 69.8 °F 58% 29.74 in 10.0 mi SE 19.6 mph 26.5 mph N/A   Clear
9:35 PM 86.0 °F 90.4 °F 69.8 °F 58% 29.74 in 10.0 mi SE 13.8 mph 28.8 mph N/A   Clear
9:55 PM 84.2 °F 88.4 °F 69.8 °F 62% 29.72 in 10.0 mi ESE 16.1 mph 24.2 mph N/A   Clear
10:15 PM 82.4 °F 86.3 °F 69.8 °F 66% 29.73 in 10.0 mi ESE 17.3 mph 28.8 mph N/A   Clear
10:35 PM 82.4 °F 86.3 °F 69.8 °F 66% 29.77 in 10.0 mi SE 8.1 mph - N/A   Clear
10:55 PM 82.4 °F 86.3 °F 69.8 °F 66% 29.78 in 10.0 mi ESE 11.5 mph 18.4 mph N/A   Clear
11:15 PM 80.6 °F 83.9 °F 69.8 °F 70% 29.81 in 10.0 mi ESE 8.1 mph - N/A Thunderstorm Clear
11:35 PM 80.6 °F 83.9 °F 69.8 °F 70% 29.80 in 10.0 mi ESE 9.2 mph 16.1 mph N/A   Clear
11:55 PM 80.6 °F 83.9 °F 69.8 °F 70% 29.81 in 10.0 mi ESE 11.5 mph 17.3 mph N/A   Clear